, TX

(GMT )
Port Isabel

Weather History for KPIL - February, 2014

Change the Weather History Date:

Thursday, February 27, 2014

  Actual Average Record
Temperature  
Mean Temperature 52 °F -  
Max Temperature 60 °F - - ()
Min Temperature 44 °F - - ()
Degree Days  
Heating Degree Days 13    
Growing Degree Days 2 (Base 50)    
Moisture  
Dew Point 43 °F    
Average Humidity 75    
Maximum Humidity 89    
Minimum Humidity 55    
Precipitation  
Precipitation 0.00 in - - ()
Sea Level Pressure  
Sea Level Pressure 30.10 in    
Wind  
Wind Speed 12 mph (North)    
Max Wind Speed 17 mph    
Max Gust Speed 20 mph    
Visibility 8 miles    
Events      
T = Trace of Precipitation, MM = Missing Value Source: NWS Daily Summary

Daily Weather History Graph

Daily Weather History Graph

Search for Another Location

Airport or City:

Trip Planner

Search our weather history database for the weather conditions in past years. The results will help you decide how hot, cold, wet, or windy it might be!

Date:

Astronomy

Feb. 27, 2014 Rise Set
Actual Time 6:54 AM CST 6:29 PM CST
Civil Twilight 6:31 AM CST 6:52 PM CST
Nautical Twilight 6:04 AM CST 7:19 PM CST
Astronomical Twilight 5:37 AM CST 7:46 PM CST
Moon 5:20 AM CST (2/27) 5:01 PM CST (2/27)
Length of Visible Light 12h 21m
Length of Day
11h 35m
Waning Crescent, 4% of the Moon is Illuminated
Feb 27
Waning Crescent
Mar 1
New
Mar 8
First Quarter
Mar 16
Full
Mar 23
Last Quarter

Hourly Weather History & Observations

Time (CST) Temp. Windchill Dew Point Humidity Pressure Visibility Wind Dir Wind Speed Gust Speed Precip Events Conditions
12:53 AM 46.0 °F 39.0 °F 39.9 °F 79% 30.17 in 7.0 mi NW 17.3 mph - N/A   Overcast
1:53 AM 45.0 °F 37.6 °F 39.9 °F 82% 30.14 in 7.0 mi NNW 17.3 mph - N/A   Overcast
2:53 AM 44.1 °F 38.6 °F 41.0 °F 89% 30.12 in 6.0 mi NNW 10.4 mph - 0.00 in   Overcast
3:05 AM 44.6 °F 38.8 °F 41.0 °F 87% 30.11 in 6.0 mi NNW 11.5 mph - N/A   Overcast
3:16 AM 44.6 °F 37.4 °F 41.0 °F 87% 30.12 in 6.0 mi NNW 16.1 mph - N/A   Overcast
3:40 AM 44.6 °F 39.2 °F 41.0 °F 87% 30.12 in 6.0 mi NW 10.4 mph - N/A   Overcast
3:53 AM 45.0 °F 39.3 °F 41.0 °F 86% 30.12 in 7.0 mi NW 11.5 mph - N/A   Overcast
4:22 AM 44.6 °F 38.4 °F 39.2 °F 81% 30.12 in 7.0 mi NW 12.7 mph - N/A   Overcast
4:53 AM 45.0 °F 38.5 °F 39.9 °F 82% 30.13 in 7.0 mi NW 13.8 mph - N/A   Overcast
5:53 AM 45.0 °F 39.3 °F 39.0 °F 80% 30.15 in 7.0 mi NW 11.5 mph - N/A   Overcast
6:53 AM 44.1 °F 37.4 °F 39.0 °F 82% 30.15 in 7.0 mi NW 13.8 mph - N/A   Overcast
7:23 AM 44.6 °F 38.4 °F 37.4 °F 76% 30.16 in 6.0 mi NW 12.7 mph - N/A   Haze
7:53 AM 46.0 °F 41.0 °F 37.9 °F 73% 30.17 in 7.0 mi NW 10.4 mph - N/A   Overcast
8:53 AM 48.0 °F - 39.0 °F 71% 30.18 in 7.0 mi NNW 11.5 mph - N/A   Overcast
9:53 AM 51.1 °F - 41.0 °F 68% 30.20 in 8.0 mi NNW 12.7 mph - N/A   Overcast
10:53 AM 55.0 °F - 42.1 °F 62% 30.18 in 9.0 mi North 11.5 mph - N/A   Overcast
11:53 AM 55.9 °F - 43.0 °F 62% 30.16 in 9.0 mi North 10.4 mph 17.3 mph N/A   Overcast
12:53 PM 59.0 °F - 43.0 °F 55% 30.12 in 9.0 mi North 13.8 mph 18.4 mph N/A   Overcast
1:53 PM 59.0 °F - 44.1 °F 58% 30.08 in 10.0 mi NE 13.8 mph 19.6 mph N/A   Overcast
2:53 PM 59.0 °F - 44.1 °F 58% 30.04 in 10.0 mi ENE 10.4 mph - N/A   Scattered Clouds
3:53 PM 60.1 °F - 44.1 °F 55% 30.03 in 10.0 mi NE 6.9 mph - N/A   Partly Cloudy
4:53 PM 57.9 °F - 45.0 °F 62% 30.02 in 10.0 mi NE 8.1 mph - N/A   Overcast
5:53 PM 57.0 °F - 46.0 °F 67% 30.01 in 10.0 mi ENE 8.1 mph - N/A   Overcast
6:53 PM 54.0 °F - 46.0 °F 75% 30.01 in 10.0 mi NE 3.5 mph - N/A   Clear
7:53 PM 53.1 °F - 46.0 °F 77% 30.03 in 10.0 mi NE 4.6 mph - N/A   Clear
8:53 PM 52.0 °F - 46.0 °F 80% 30.02 in 10.0 mi East 4.6 mph - N/A   Partly Cloudy
9:08 PM 53.6 °F - 48.2 °F 82% 30.03 in 10.0 mi East 4.6 mph - N/A   Mostly Cloudy
9:53 PM 57.0 °F - 50.0 °F 77% 30.01 in 10.0 mi East 5.8 mph - N/A   Overcast
10:53 PM 57.9 °F - 51.1 °F 78% 30.00 in 10.0 mi SE 5.8 mph - N/A   Overcast
11:53 PM 57.9 °F - 51.1 °F 78% 29.99 in 10.0 mi South 5.8 mph - N/A   Overcast